User: anonymous   Login
Location: Unspecified
(0.0000°N, 0.0000°E)
Time: 22:14:16
(UTC+00:00)
Language:

Himawari - Orbit

View from above orbital plane
View from above orbital plane
View from above satellite
View from above satellite

Ground track
Ground track

The orbit data is extracted from the following two-line orbital elements,

1 10143U 77065A   24109.87857390 -.00000324  00000-0  00000-0 0  9997
2 10143   8.4077 299.6290 0017152 215.8099 145.2389  0.99252466113396
Epoch (UTC): 18 April 2024 21:05:08
Eccentricity: 0.0017152
inclination: 8.4077°
perigee height: 36001 km
apogee height: 36147 km
right ascension of ascending node: 299.6290°
argument of perigee: 215.8099°
revolutions per day: 0.99252466
mean anomaly at epoch: 145.2389°
orbit number at epoch: 11339

The dashed part of the orbit path shows where the satellite is in the earth's shadow,  

DLR